Weather History for KANE - August, 2013

Change the Weather History Date:

Thursday, August 22, 2013

  Actual Average Record
Temperature  
Mean Temperature 74 °F -  
Max Temperature 84 °F 76 °F 87 °F (2008)
Min Temperature 62 °F 57 °F 48 °F (2005)
Cooling Degree Days 9    
Growing Degree Days 24 (Base 50)    
Moisture  
Dew Point 54 °F    
Average Humidity 58    
Maximum Humidity 78    
Minimum Humidity 27    
Precipitation  
Precipitation 0.00 in - - ()
Sea Level Pressure  
Sea Level Pressure 30.09 in    
Wind  
Wind Speed 5 mph (NNE)    
Max Wind Speed 14 mph    
Max Gust Speed 20 mph    
Visibility 10 miles    
Events      
Averages and records for this station are not official NWS values.
T = Trace of Precipitation, MM = Missing Value Source: NWS Daily Summary

Daily Weather History Graph

Daily Weather History Graph

Search for Another Location

Airport or City:

Trip Planner

Search our weather history database for the weather conditions in past years. The results will help you decide how hot, cold, wet, or windy it might be!

Date:

Astronomy

Aug. 22, 2013 Rise Set
Actual Time 6:22 AM CDT 8:07 PM CDT
Civil Twilight 5:51 AM CDT 8:38 PM CDT
Nautical Twilight 5:13 AM CDT 9:16 PM CDT
Astronomical Twilight 4:32 AM CDT 9:57 PM CDT
Moon 8:42 PM CDT (8/22) 8:20 AM CDT (8/22)
Length of Visible Light 14h 46m
Length of Day
13h 44m
Waning Gibbous, 96% of the Moon is Illuminated
Aug 22
Waning Gibbous
Aug 28
Last Quarter
Sep 5
New
Sep 12
First Quarter
Sep 19
Full

Hourly Weather History & Observations

Time (CDT) Temp. Dew Point Humidity Pressure Visibility Wind Dir Wind Speed Gust Speed Precip Events Conditions
12:14 AM 71.6 °F 62.6 °F 73% 30.02 in 10.0 mi NNE 4.6 mph - N/A   Clear
12:34 AM 71.6 °F 60.8 °F 69% 30.04 in 10.0 mi North 3.5 mph - N/A   Clear
12:54 AM 71.6 °F 60.8 °F 69% 30.04 in 10.0 mi North 4.6 mph - N/A   Clear
1:14 AM 69.8 °F 60.8 °F 73% 30.04 in 10.0 mi North 4.6 mph - N/A   Clear
1:34 AM 69.8 °F 60.8 °F 73% 30.05 in 10.0 mi NNE 4.6 mph - N/A   Clear
1:54 AM 69.8 °F 60.8 °F 73% 30.05 in 10.0 mi NNE 4.6 mph - N/A   Clear
2:14 AM 68.0 °F 60.8 °F 78% 30.05 in 10.0 mi NNE 3.5 mph - N/A   Clear
2:34 AM 68.0 °F 59.0 °F 73% 30.05 in 10.0 mi North 4.6 mph - N/A   Clear
2:54 AM 68.0 °F 59.0 °F 73% 30.05 in 10.0 mi NNE 5.8 mph - N/A   Clear
3:14 AM 69.8 °F 57.2 °F 64% 30.06 in 10.0 mi NNE 5.8 mph - N/A   Clear
3:34 AM 69.8 °F 57.2 °F 64% 30.06 in 10.0 mi NNE 5.8 mph - N/A   Mostly Cloudy
3:53 AM 68.0 °F 57.2 °F 68% 30.07 in 10.0 mi North 3.5 mph - N/A   Scattered Clouds
4:14 AM 68.0 °F 57.2 °F 68% 30.08 in 10.0 mi North 5.8 mph - N/A   Clear
4:33 AM 69.8 °F 55.4 °F 60% 30.08 in 10.0 mi North 9.2 mph - N/A   Clear
4:54 AM 69.8 °F 55.4 °F 60% 30.09 in 10.0 mi NNE 8.1 mph - N/A   Clear
5:14 AM 68.0 °F 53.6 °F 60% 30.09 in 10.0 mi NNE 8.1 mph - N/A   Clear
5:33 AM 66.2 °F 53.6 °F 64% 30.09 in 10.0 mi NNE 9.2 mph - N/A   Clear
5:54 AM 66.2 °F 53.6 °F 64% 30.09 in 10.0 mi NNE 13.8 mph - N/A   Clear
6:14 AM 66.2 °F 51.8 °F 60% 30.09 in 10.0 mi NNE 11.5 mph 18.4 mph N/A   Clear
6:34 AM 66.2 °F 51.8 °F 60% 30.09 in 10.0 mi NNE 12.7 mph 19.6 mph N/A   Clear
6:45 AM 66.2 °F 51.8 °F 60% 30.10 in 10.0 mi NNE 11.5 mph - N/A   Mostly Cloudy
6:54 AM 66.2 °F 51.8 °F 60% 30.10 in 10.0 mi NNE 11.5 mph - N/A   Clear
7:45 AM 66.2 °F 48.2 °F 52% 30.13 in 10.0 mi NE 6.9 mph - N/A   Mostly Cloudy
8:45 AM 68.0 °F 53.6 °F 60% 30.14 in 10.0 mi NE 6.9 mph - N/A   Mostly Cloudy
9:45 AM 73.4 °F 51.8 °F 47% 30.12 in 10.0 mi NNE 8.1 mph - N/A   Scattered Clouds
10:45 AM 75.2 °F 53.6 °F 47% 30.12 in 10.0 mi NNE 5.8 mph - N/A   Clear
11:45 AM 80.6 °F 48.2 °F 32% 30.13 in 10.0 mi North 10.4 mph 17.3 mph N/A   Clear
12:45 PM 80.6 °F 50.0 °F 34% 30.11 in 10.0 mi NNE 8.1 mph - N/A   Clear
1:50 PM 82.4 °F 48.2 °F 30% 30.12 in 10.0 mi NNE 8.1 mph - N/A   Clear
2:50 PM 84.2 °F 50.0 °F 30% 30.11 in 10.0 mi NE 6.9 mph - N/A   Clear
3:50 PM 84.2 °F 48.2 °F 29% 30.10 in 10.0 mi Calm Calm - N/A   Partly Cloudy
4:50 PM 84.2 °F 48.2 °F 29% 30.10 in 10.0 mi North 10.4 mph - N/A   Clear
5:45 PM 84.2 °F 46.4 °F 27% 30.09 in 10.0 mi North 6.9 mph - N/A   Partly Cloudy
6:55 PM 80.6 °F 48.2 °F 32% 30.10 in 10.0 mi NNE 5.8 mph - N/A   Clear
7:55 PM 77.0 °F 51.8 °F 41% 30.10 in 10.0 mi NNE 4.6 mph - N/A   Clear
9:14 PM 68.0 °F 55.4 °F 64% 30.12 in 10.0 mi Calm Calm - N/A   Clear
9:33 PM 68.0 °F 55.4 °F 64% 30.12 in 10.0 mi Calm Calm - N/A   Clear
9:50 PM 68.0 °F 55.4 °F 64% 30.12 in 10.0 mi Calm Calm - N/A   Clear
9:54 PM 66.2 °F 55.4 °F 68% 30.12 in 10.0 mi Calm Calm - N/A   Clear
10:14 PM 66.2 °F 55.4 °F 68% 30.12 in 10.0 mi Calm Calm - N/A   Clear
10:34 PM 64.4 °F 55.4 °F 73% 30.12 in 10.0 mi Calm Calm - N/A   Clear
10:54 PM 66.2 °F 53.6 °F 64% 30.13 in 10.0 mi Calm Calm - N/A   Clear
11:14 PM 68.0 °F 51.8 °F 56% 30.13 in 10.0 mi Calm Calm - N/A   Clear
11:34 PM 66.2 °F 51.8 °F 60% 30.14 in 10.0 mi Calm Calm - N/A   Clear
11:54 PM 62.6 °F 53.6 °F 72% 30.14 in 10.0 mi Calm Calm - N/A   Clear